Date,TemperatureHighF,TemperatureAvgF,TemperatureLowF,DewpointHighF,DewpointAvgF,DewpointLowF,HumidityHigh,HumidityAvg,HumidityLow,PressureMaxIn,PressureMinIn,WindSpeedMaxMPH,WindSpeedAvgMPH,GustSpeedMaxMPH,PrecipitationSumIn
2013-1-1,37,34,30,33,30,26,88,85,82,30.13,30.01,13,2,13,0.08
2013-1-2,35,28,23,27,22,17,85,77,63,30.23,30.11,10,2,10,0.00
2013-1-3,42,28,18,27,20,14,82,71,50,30.38,30.18,15,2,15,0.00
2013-1-4,41,30,22,30,22,17,83,73,57,30.40,30.33,18,2,18,0.00
2013-1-5,50,34,22,35,25,17,84,70,52,30.37,30.18,13,2,13,0.00
2013-1-6,42,36,26,33,27,19,75,70,66,30.37,30.10,21,6,21,0.00
2013-1-7,45,31,21,30,22,16,84,70,51,30.43,30.21,6,1,7,0.00
2013-1-8,57,40,27,39,30,21,79,67,49,30.31,30.20,17,2,17,0.00
2013-1-9,59,48,42,48,40,32,81,73,63,30.47,30.21,7,1,7,0.00
2013-1-10,57,48,43,54,43,36,90,82,71,30.46,30.00,15,3,15,0.30
2013-1-11,69,59,54,55,52,48,88,76,55,30.01,29.85,22,6,24,0.51
2013-1-12,66,61,54,62,57,49,90,88,83,30.03,29.80,19,4,20,0.02
2013-1-13,65,52,31,59,48,28,90,86,79,30.18,29.79,21,6,23,1.86
2013-1-14,33,28,25,28,23,20,87,78,70,30.42,30.18,17,5,17,0.00
2013-1-15,32,28,23,27,23,19,87,82,75,30.29,30.03,19,4,20,0.00
2013-1-16,34,31,30,30,28,27,88,87,84,30.12,29.98,15,2,15,0.00
2013-1-17,46,34,29,35,28,23,87,78,62,30.39,30.08,15,2,15,0.16
2013-1-18,47,34,22,32,25,17,84,69,53,30.51,30.29,12,4,13,0.00
2013-1-19,57,44,33,37,30,24,72,58,43,30.30,30.02,22,8,23,0.00
2013-1-20,44,38,27,31,22,12,74,53,35,30.24,30.05,21,4,22,0.00
2013-1-21,31,25,17,17,10,1,70,53,36,30.27,30.13,22,6,26,0.00
2013-1-22,25,18,12,4,1,-2,57,48,38,30.40,30.25,13,4,14,0.00
2013-1-23,43,27,13,21,12,2,66,53,39,30.34,30.08,17,3,17,0.00
2013-1-24,32,26,20,19,8,1,62,47,30,30.52,30.14,22,6,25,0.00
2013-1-25,31,26,21,24,17,4,81,70,46,30.35,30.05,10,3,10,0.00
2013-1-26,38,29,20,29,22,16,85,75,62,30.37,30.17,6,1,6,0.04
2013-1-27,45,34,23,37,28,18,85,77,62,30.38,30.18,13,2,13,0.10
2013-1-28,54,49,42,49,44,36,84,81,75,30.18,30.07,20,6,23,0.14
2013-1-29,64,58,52,57,53,47,87,82,78,30.11,29.60,22,7,26,0.02
2013-1-30,67,52,32,59,46,24,89,81,71,29.74,29.38,24,10,28,0.88
2013-1-31,38,31,20,27,22,10,84,69,56,30.11,29.74,22,10,24,0.02
2013-2-1,29,18,8,16,8,0,76,65,54,30.44,30.11,22,5,23,0.00
2013-2-2,42,31,20,30,21,12,78,68,57,30.31,30.00,22,4,22,0.00
2013-2-3,33,30,21,28,23,15,84,76,71,30.15,29.95,20,4,21,0.00
2013-2-4,52,35,19,39,27,14,84,75,50,30.12,29.83,22,5,25,0.14
2013-2-5,55,44,38,42,36,31,88,73,52,30.04,29.87,20,4,20,0.00
2013-2-6,52,40,28,38,30,23,86,71,53,30.23,30.04,11,2,11,0.00
2013-2-7,69,50,36,46,36,29,77,62,41,30.14,29.86,18,3,18,0.00
2013-2-8,49,38,32,44,32,24,86,77,71,30.32,29.85,22,7,22,0.14
2013-2-9,51,38,27,32,26,21,78,63,43,30.37,30.15,8,2,8,0.00
2013-2-10,59,47,37,47,37,25,86,68,47,30.15,29.81,22,6,28,0.18
2013-2-11,53,48,36,49,35,23,87,63,45,30.11,29.84,22,7,24,0.14
2013-2-12,56,41,28,35,27,22,79,59,43,30.15,29.87,7,1,10,0.00
2013-2-13,43,37,31,35,28,26,81,71,56,29.95,29.74,15,4,15,0.02
2013-2-14,60,44,30,42,33,26,85,68,45,29.99,29.88,21,5,21,0.02
2013-2-15,44,38,26,33,27,17,74,64,51,30.17,29.98,22,4,24,0.00
2013-2-16,34,27,20,21,14,8,76,59,38,30.15,30.06,22,4,26,0.00
2013-2-17,42,29,18,24,14,7,70,55,38,30.24,30.13,10,2,13,0.00
2013-2-18,64,46,29,40,28,15,73,52,36,30.16,29.77,23,9,26,0.04
2013-2-19,46,36,25,39,26,14,85,65,45,30.18,29.75,22,9,26,0.10
2013-2-20,33,26,18,17,13,10,70,59,48,30.31,30.18,17,3,25,0.00
2013-2-21,41,29,19,28,18,11,84,64,45,30.28,29.92,18,4,18,0.12
2013-2-22,54,42,32,44,35,28,88,78,64,30.00,29.84,22,4,24,0.10
2013-2-23,48,37,29,32,25,21,81,64,45,30.02,29.91,13,3,13,0.00
2013-2-24,50,36,24,30,23,17,78,59,39,30.13,29.95,9,2,10,0.00
2013-2-25,54,41,28,31,25,21,74,55,38,30.08,29.73,20,5,20,0.00
2013-2-26,52,44,39,47,36,24,86,75,47,29.74,29.38,25,6,25,0.48
2013-2-27,39,37,32,34,31,28,85,81,77,29.82,29.60,20,7,23,0.06
2013-2-28,35,33,31,30,29,27,87,84,82,30.00,29.79,19,5,23,0.02
2013-3-1,40,34,32,34,30,28,88,84,76,30.02,29.95,11,3,17,0.06
2013-3-2,34,30,28,28,24,20,87,76,68,30.11,29.99,15,5,15,0.02
2013-3-3,39,31,26,23,20,13,82,64,47,30.11,30.05,20,4,20,0.00
2013-3-4,47,36,21,28,20,10,71,53,43,30.13,29.91,12,2,12,0.00
2013-3-5,49,40,29,44,34,24,88,79,54,29.91,29.61,21,5,25,0.38
2013-3-6,34,31,29,28,26,24,86,82,78,30.29,29.83,21,8,26,0.00
2013-3-7,38,33,30,30,26,24,83,76,68,30.37,30.27,9,2,10,0.02
2013-3-8,52,39,28,33,27,22,81,63,44,30.43,30.31,12,2,13,0.00
2013-3-9,67,48,34,40,32,25,73,56,36,30.31,30.04,13,3,13,0.00
2013-3-10,73,58,48,43,37,32,65,45,32,30.04,29.80,22,6,25,0.06
2013-3-11,53,47,37,48,41,31,84,78,64,29.92,29.71,22,6,23,1.09
2013-3-12,51,40,34,35,28,22,79,63,48,30.08,29.92,21,5,23,0.00
2013-3-13,39,33,26,28,20,16,73,59,44,30.36,30.08,22,7,25,0.00
2013-3-14,52,34,18,30,21,11,79,60,37,30.38,30.20,15,2,17,0.00
2013-3-15,70,49,31,47,36,25,80,61,41,30.21,29.79,17,3,17,0.00
2013-3-16,72,60,46,52,45,37,71,60,45,29.97,29.71,22,8,24,0.00
2013-3-17,46,39,36,37,35,32,88,85,71,30.05,29.87,17,4,17,0.52
2013-3-18,52,44,35,49,40,31,91,86,77,29.92,29.63,24,6,25,0.75
2013-3-19,48,39,31,32,24,16,86,58,29,30.16,29.91,21,5,25,0.00
2013-3-20,47,33,24,28,17,10,69,52,36,30.16,30.01,22,5,25,0.00
2013-3-21,37,26,17,18,12,8,68,54,42,30.05,29.97,19,3,20,0.00
2013-3-22,43,32,21,21,16,9,63,50,38,30.07,29.98,7,1,7,0.00
2013-3-23,58,45,36,32,25,18,51,45,34,30.02,29.80,12,2,12,0.00
2013-3-24,46,39,34,36,32,25,86,78,46,29.80,29.39,24,5,26,0.00
2013-3-25,36,33,31,29,27,26,87,81,71,30.02,29.51,22,8,26,0.00
2013-3-26,41,35,31,30,27,25,85,74,55,30.29,30.02,22,5,22,0.00
2013-3-27,50,37,26,32,24,19,78,60,44,30.35,30.28,17,3,17,0.00
2013-3-28,54,41,29,33,24,20,72,52,37,30.37,30.27,13,2,13,0.00
2013-3-29,55,44,35,43,32,21,83,64,52,30.31,30.20,13,2,13,0.00
2013-3-30,65,50,36,45,39,33,89,70,45,30.23,29.93,13,2,13,0.00
2013-3-31,64,52,46,51,44,38,89,75,53,29.93,29.81,12,2,16,0.06
2013-4-1,53,46,37,42,31,20,82,58,34,30.14,29.85,22,6,22,0.00
2013-4-2,53,41,30,24,20,16,60,44,28,30.27,30.13,14,4,14,0.00
2013-4-3,54,42,29,24,19,13,52,40,29,30.35,30.23,16,3,17,0.00
2013-4-4,54,45,37,29,23,17,53,42,37,30.24,30.00,17,2,17,0.00
2013-4-5,67,52,37,36,30,26,67,45,30,30.12,29.99,22,3,22,0.00
2013-4-6,78,60,42,46,35,26,54,40,28,30.14,29.94,21,4,21,0.00
2013-4-7,78,65,56,54,44,37,54,48,42,30.02,29.92,20,7,22,0.00
2013-4-8,78,66,55,59,49,42,65,56,47,29.98,29.90,22,5,25,0.00
2013-4-9,85,70,58,62,55,48,73,60,43,30.09,29.96,21,5,26,0.00
2013-4-10,89,73,59,64,58,52,76,60,43,30.01,29.78,22,6,25,0.00
2013-4-11,69,63,53,59,56,49,87,77,58,29.81,29.55,17,3,17,0.00
2013-4-12,61,48,37,49,38,31,88,68,48,29.97,29.61,21,6,25,0.00
2013-4-13,63,49,32,43,34,26,79,58,40,30.08,29.97,19,3,23,0.00
2013-4-14,80,61,45,50,42,34,68,52,32,30.03,29.85,17,3,18,0.00
2013-4-15,78,65,55,57,51,46,74,62,46,30.01,29.90,14,2,14,0.00
2013-4-16,85,71,59,68,59,50,80,68,54,30.12,29.95,21,5,25,0.00
2013-4-17,88,70,61,70,61,56,87,75,54,30.14,29.94,19,2,20,0.02
2013-4-18,87,73,61,64,58,53,83,61,38,29.94,29.62,23,8,25,0.00
2013-4-19,71,47,37,58,37,28,85,69,52,30.06,29.50,22,7,23,0.00
2013-4-20,58,45,31,36,29,24,81,56,37,30.34,30.05,20,3,20,0.00
2013-4-21,65,50,37,38,31,25,64,48,33,30.44,30.29,13,3,14,0.00
2013-4-22,78,60,41,51,38,28,63,47,33,30.32,30.10,13,2,13,0.00
2013-4-23,76,62,48,54,46,36,68,55,46,30.12,29.90,22,5,22,0.00
2013-4-24,63,51,36,52,42,31,86,74,61,30.26,29.83,19,6,22,0.00
2013-4-25,66,49,31,45,36,27,88,64,40,30.36,30.24,20,3,20,0.00
2013-4-26,68,54,41,40,35,29,66,50,33,30.44,30.31,10,1,10,0.00
2013-4-27,58,54,50,51,46,36,87,74,55,30.34,29.96,20,2,20,0.00
2013-4-28,70,58,53,60,52,49,89,80,66,29.98,29.86,20,5,20,0.00
2013-4-29,75,61,53,57,52,47,87,72,49,30.03,29.93,12,1,13,0.00
2013-4-30,84,67,49,62,52,45,88,62,39,30.05,29.94,10,1,14,0.00
2013-5-1,87,72,56,64,55,47,76,56,39,30.16,30.04,9,1,10,0.00
2013-5-2,83,71,59,60,54,49,70,56,41,30.19,30.06,11,2,12,0.00
2013-5-3,81,69,60,60,55,52,77,62,45,30.07,29.87,15,2,15,0.00
2013-5-4,62,56,52,53,48,46,89,77,63,29.98,29.88,9,1,10,0.00
2013-5-5,57,53,50,52,49,46,89,86,80,29.95,29.84,19,3,19,0.00
2013-5-6,70,58,50,57,51,29,90,78,41,29.93,29.78,9,2,9,0.00
2013-5-7,76,62,51,59,53,47,90,73,47,29.98,29.90,7,2,7,0.00
2013-5-8,81,67,56,61,54,51,84,65,43,30.02,29.92,11,2,12,0.00
2013-5-9,88,71,55,64,56,48,82,62,42,30.06,29.95,15,2,15,0.00
2013-5-10,68,64,61,61,57,53,86,78,66,29.98,29.85,22,3,22,0.00
2013-5-11,66,59,52,58,51,38,87,76,57,30.03,29.86,21,4,21,0.00
2013-5-12,60,52,40,38,33,31,71,51,35,30.15,30.02,21,4,23,0.00
2013-5-13,67,54,36,44,35,28,78,51,33,30.23,30.13,17,2,17,0.00
2013-5-14,86,66,44,61,48,33,71,54,40,30.16,29.89,22,5,24,0.00
2013-5-15,91,76,63,62,55,46,69,51,35,30.02,29.90,22,6,22,0.00
2013-5-16,83,71,62,64,56,46,79,59,46,29.98,29.92,14,3,17,0.00
2013-5-17,78,69,62,65,61,55,85,76,62,30.06,29.95,8,1,8,0.04
2013-5-18,85,72,64,69,63,59,87,74,55,30.02,29.94,6,1,6,0.02
2013-5-19,95,77,62,75,66,58,89,72,50,30.00,29.90,8,2,10,0.00
2013-5-20,92,77,62,74,65,57,85,68,47,30.02,29.90,17,4,17,0.00
2013-5-21,92,75,66,70,63,59,83,69,45,29.96,29.83,22,4,22,0.04
2013-5-22,87,71,62,67,61,57,85,73,49,29.87,29.78,15,4,17,0.28
2013-5-23,76,64,56,62,56,48,88,74,53,30.06,29.83,19,4,20,0.02
2013-5-24,69,59,49,48,45,39,82,62,40,30.30,30.06,16,4,17,0.00
2013-5-25,78,63,46,52,44,37,73,53,32,30.35,30.17,9,1,10,0.00
2013-5-26,81,67,56,56,50,45,73,57,40,30.27,30.13,6,1,7,0.00
2013-5-27,92,75,58,64,56,49,74,54,36,30.16,29.98,22,4,22,0.00
2013-5-28,94,79,66,65,59,54,69,52,35,30.07,29.96,22,6,26,0.00
2013-5-29,95,80,65,70,61,54,71,54,38,30.11,29.99,15,3,18,0.00
2013-5-30,95,80,67,71,64,57,74,59,43,30.13,30.00,18,5,23,0.00
2013-5-31,84,75,68,71,65,60,80,71,61,30.06,29.94,17,5,22,0.10
2013-6-1,84,71,63,70,64,58,86,76,61,29.98,29.79,17,3,22,0.06
2013-6-2,85,71,62,67,61,56,87,71,51,29.94,29.88,18,3,18,0.00
2013-6-3,77,67,59,59,55,50,88,68,47,30.04,29.94,14,3,14,0.02
2013-6-4,84,68,51,61,54,46,84,64,44,30.09,30.00,7,1,7,0.00
2013-6-5,92,75,61,67,60,52,76,62,41,30.03,29.84,11,1,12,0.00
2013-6-6,80,72,67,68,64,60,86,75,59,29.87,29.76,12,2,12,0.65
2013-6-7,84,70,62,65,61,58,90,74,49,29.87,29.76,9,1,9,0.16
2013-6-8,88,74,60,70,61,56,89,68,43,30.01,29.83,19,2,19,0.54
2013-6-9,87,72,61,68,62,55,83,71,50,30.03,29.87,12,2,12,0.04
2013-6-10,83,71,65,68,63,60,87,76,58,29.92,29.81,17,3,17,0.73
2013-6-11,92,76,60,71,64,55,87,67,46,30.01,29.91,9,2,9,0.00
2013-6-12,99,84,71,79,70,62,81,64,49,30.00,29.80,21,5,22,0.00
2013-6-13,84,78,68,72,65,52,74,64,50,29.97,29.73,22,8,25,0.00
2013-6-14,86,72,57,61,55,50,78,58,39,30.05,29.93,7,2,8,0.00
2013-6-15,93,77,61,67,60,54,80,58,40,30.11,29.98,12,2,14,0.00
2013-6-16,91,76,68,72,64,58,83,67,48,30.06,29.95,18,2,18,0.00
2013-6-17,94,74,66,76,65,58,88,77,51,29.99,29.88,21,1,21,0.90
2013-6-18,87,74,64,68,63,57,90,71,51,29.96,29.86,22,2,22,0.22
2013-6-19,86,74,61,68,62,56,88,68,49,30.08,29.95,6,1,7,0.00
2013-6-20,93,77,64,68,61,57,77,60,40,30.18,30.08,5,1,7,0.00
2013-6-21,96,80,64,73,66,59,86,64,44,30.20,30.11,9,1,9,0.00
2013-6-22,98,81,65,74,67,59,83,63,42,30.19,30.07,16,2,16,0.00
2013-6-23,97,81,67,73,65,60,84,62,40,30.15,30.05,13,2,14,0.00
2013-6-24,84,74,68,71,65,60,85,76,64,30.16,30.06,10,1,10,0.14
2013-6-25,97,81,66,78,69,61,86,69,49,30.08,29.93,16,3,16,0.00
2013-6-26,94,80,66,75,69,62,88,71,52,30.00,29.69,20,4,22,2.66
2013-6-27,90,77,66,76,69,62,88,77,59,29.84,29.77,13,2,13,0.28
2013-6-28,88,79,71,70,65,60,81,65,41,29.79,29.64,20,3,22,0.00
2013-6-29,91,75,63,69,61,55,79,62,43,29.68,29.61,14,3,17,0.14
2013-6-30,87,70,62,67,61,56,87,74,48,29.81,29.66,10,2,10,0.00
2013-7-1,65,64,63,61,59,59,88,86,84,29.89,29.77,15,6,15,0.69
2013-7-2,90,74,61,71,63,58,90,71,48,30.01,29.87,16,2,16,0.00
2013-7-3,92,74,62,71,64,58,88,71,47,30.11,30.00,13,1,14,0.00
2013-7-4,71,69,65,66,64,61,88,84,78,30.12,30.05,5,1,7,1.79
2013-7-5,86,72,64,72,66,61,91,82,63,30.12,30.05,10,1,10,0.51
2013-7-6,82,70,64,69,64,60,89,81,64,30.12,30.06,6,1,7,2.52
2013-7-7,90,77,65,72,66,61,90,72,50,30.13,30.03,8,1,9,0.00
2013-7-8,96,80,65,76,68,61,88,70,47,30.16,30.06,9,1,9,0.00
2013-7-9,98,82,70,78,70,64,83,68,50,30.12,30.01,14,2,14,0.00
2013-7-10,97,79,69,80,70,62,84,75,55,30.03,29.88,22,2,22,1.25
2013-7-11,85,74,68,74,65,60,88,74,53,29.98,29.93,16,2,16,0.00
2013-7-12,82,72,62,62,58,55,79,63,47,30.07,29.98,11,2,12,0.00
2013-7-13,86,72,61,68,62,55,84,71,53,30.09,30.01,11,2,12,0.30
2013-7-14,95,79,66,74,68,62,88,72,48,30.18,30.07,5,1,7,0.12
2013-7-15,96,83,71,74,69,65,86,66,44,30.28,30.18,14,2,14,0.00
2013-7-16,96,84,71,76,71,65,85,66,49,30.33,30.24,7,0,7,0.00
2013-7-17,97,85,75,77,72,69,84,68,47,30.31,30.18,8,1,8,0.00
2013-7-18,96,83,74,78,73,66,86,71,54,30.21,30.05,10,1,12,0.08
2013-7-19,95,82,69,79,70,64,85,69,52,30.07,29.94,19,2,20,0.00
2013-7-20,99,83,71,77,70,65,83,68,47,29.98,29.88,21,3,21,0.10
2013-7-21,93,80,69,76,69,65,86,72,52,29.99,29.88,11,2,12,0.12
2013-7-22,86,76,70,75,68,64,86,78,65,29.94,29.80,16,2,16,1.04
2013-7-23,94,81,71,77,71,65,87,74,54,29.88,29.76,10,3,12,0.00
2013-7-24,82,73,65,68,61,57,79,65,49,29.96,29.81,14,3,14,0.00
2013-7-25,83,71,60,64,59,54,84,67,49,30.06,29.95,10,2,10,0.00
2013-7-26,92,74,59,68,61,54,85,65,43,30.07,29.98,10,1,10,0.00
2013-7-27,82,72,66,68,62,56,81,71,59,29.98,29.87,14,2,14,0.10
2013-7-28,81,67,52,58,52,46,83,60,42,30.07,29.93,10,2,10,0.00
2013-7-29,88,70,54,65,56,49,84,63,41,30.18,30.07,10,2,10,0.00
2013-7-30,82,70,62,66,61,56,83,74,55,30.20,30.09,11,0,12,0.14
2013-7-31,78,70,65,69,64,61,89,82,72,30.11,29.94,9,2,10,0.16
2013-8-1,85,73,64,69,64,58,92,74,50,30.02,29.94,15,2,15,0.00
2013-8-2,93,76,60,70,62,55,86,65,44,30.04,29.97,11,1,12,0.00
2013-8-3,89,77,67,74,67,60,81,71,58,30.04,29.96,16,2,16,0.00
2013-8-4,83,73,64,66,59,56,87,65,42,30.13,30.04,10,2,14,0.00
2013-8-5,88,73,58,62,57,52,83,61,37,30.11,29.94,9,1,9,0.00
2013-8-6,92,77,68,74,67,60,85,72,56,29.97,29.90,11,1,12,0.00
2013-8-7,92,80,72,76,71,66,86,74,56,29.95,29.88,14,2,14,0.00
2013-8-8,94,79,71,78,71,66,87,77,54,29.98,29.87,15,2,17,0.59
2013-8-9,92,79,72,77,71,67,88,78,59,30.04,29.93,9,3,10,1.79
2013-8-10,91,77,70,76,70,65,88,78,58,30.11,30.02,9,1,9,0.77
2013-8-11,92,80,70,77,69,66,88,72,52,30.11,30.03,14,1,14,0.00
2013-8-12,91,75,68,76,68,63,86,79,59,30.08,29.91,13,2,13,2.15
2013-8-13,82,73,66,71,65,54,90,77,60,30.04,29.88,17,2,17,0.04
2013-8-14,77,64,53,56,52,48,84,65,47,30.13,30.03,16,2,16,0.00
2013-8-15,79,64,51,57,52,46,86,68,46,30.12,30.03,6,1,10,0.00
2013-8-16,83,69,56,65,58,51,85,69,51,30.11,30.04,7,1,7,0.00
2013-8-17,85,72,64,68,61,56,78,68,53,30.14,30.06,8,1,8,0.00
2013-8-18,90,72,60,70,63,56,89,75,50,30.17,30.07,10,1,10,0.00
2013-8-19,91,75,64,72,65,60,90,73,47,30.13,30.03,57,2,58,0.00
2013-8-20,88,75,66,73,67,62,90,77,58,30.14,30.05,12,1,12,0.00
2013-8-21,95,79,66,76,68,62,88,73,50,30.16,30.05,9,1,9,0.00
2013-8-22,94,80,68,77,68,63,86,68,46,30.13,30.02,12,1,12,0.00
2013-8-23,90,79,70,73,67,63,86,70,51,30.11,30.02,6,1,7,0.00
2013-8-24,89,76,64,70,62,55,89,65,38,30.23,30.11,12,1,12,0.00
2013-8-25,95,78,63,74,64,55,79,64,47,30.32,30.21,10,1,10,0.00
2013-8-26,95,78,65,74,66,59,85,68,46,30.26,30.11,11,2,12,0.00
2013-8-27,94,80,69,76,69,62,83,71,54,30.14,30.01,14,2,14,0.00
2013-8-28,96,81,70,73,69,66,87,68,45,30.03,29.95,14,3,20,0.00
2013-8-29,93,82,72,75,69,66,80,66,45,30.01,29.94,7,0,7,0.00
2013-8-30,96,82,69,77,70,65,86,69,47,29.98,29.86,9,1,9,0.00
2013-8-31,99,82,68,79,71,64,88,71,49,29.93,29.78,14,1,14,2.24
2013-9-1,90,76,68,73,68,64,89,77,55,29.93,29.76,18,3,22,0.59
2013-9-2,94,78,69,76,70,64,89,77,54,29.91,29.82,9,2,10,0.00
2013-9-3,82,72,62,67,61,54,86,71,53,30.06,29.88,14,2,14,0.00
2013-9-4,83,69,56,64,57,52,86,68,49,30.14,30.05,6,0,7,0.00
2013-9-5,86,72,59,66,60,55,88,69,45,30.19,30.12,6,1,6,0.00
2013-9-6,89,74,63,68,63,58,88,70,48,30.18,30.08,6,1,6,0.00
2013-9-7,93,77,63,72,64,58,86,68,48,30.09,29.97,9,1,9,0.00
2013-9-8,92,76,68,73,66,61,86,72,50,30.01,29.94,5,0,6,0.00
2013-9-9,98,82,68,76,69,63,86,68,45,30.05,29.98,8,2,10,0.00
2013-9-10,98,81,70,77,69,63,83,69,48,30.15,30.04,18,3,18,0.45
2013-9-11,95,79,68,78,68,63,85,72,52,30.18,30.07,15,2,15,0.04
2013-9-12,86,74,66,73,66,60,86,75,59,30.08,29.91,14,2,14,0.16
2013-9-13,71,64,52,62,52,44,84,67,45,30.05,29.94,16,3,16,0.00
2013-9-14,72,59,47,53,47,42,86,67,45,30.14,30.05,10,1,10,0.00
2013-9-15,86,67,50,64,54,44,82,65,44,30.12,30.04,11,2,12,0.00
2013-9-16,72,66,62,64,59,55,84,78,72,30.21,30.07,4,0,5,0.08
2013-9-17,79,66,55,60,56,52,89,72,50,30.24,30.11,8,1,8,0.00
2013-9-18,82,70,62,69,61,53,84,75,63,30.16,30.06,10,2,10,0.00
2013-9-19,88,74,64,72,65,59,87,74,55,30.11,29.99,11,2,17,0.00
2013-9-20,92,75,66,72,66,61,88,75,51,30.01,29.82,18,3,18,1.04
2013-9-21,72,65,56,65,56,49,90,75,52,29.86,29.72,13,3,18,2.19
2013-9-22,71,60,50,53,49,46,85,69,49,29.98,29.86,12,2,12,0.00
2013-9-23,75,60,47,55,49,43,87,69,47,30.05,29.96,9,1,9,0.00
2013-9-24,86,67,53,67,56,48,87,69,48,30.02,29.85,9,1,9,0.00
2013-9-25,83,70,62,67,61,57,88,75,53,29.89,29.82,7,1,7,0.00
2013-9-26,79,66,56,60,56,52,88,72,46,30.04,29.89,12,1,12,0.00
2013-9-27,86,68,57,64,57,52,89,69,45,30.14,30.03,7,0,7,0.00
2013-9-28,88,70,56,66,57,51,86,66,45,30.16,30.05,13,2,13,0.00
2013-9-29,72,62,56,60,56,51,86,80,62,30.08,30.00,17,2,17,0.22
2013-9-30,82,68,61,66,60,56,87,75,56,30.02,29.94,12,2,13,0.00
2013-10-1,85,70,58,68,61,54,89,74,54,30.09,30.00,13,2,13,0.00
2013-10-2,83,71,63,71,64,58,88,80,67,30.12,30.04,12,1,13,0.06
2013-10-3,88,74,67,72,65,62,89,76,52,30.10,29.99,9,1,9,0.00
2013-10-4,90,74,64,72,65,59,85,73,54,30.10,30.02,11,2,12,0.00
2013-10-5,80,72,66,71,66,61,91,83,68,30.06,29.92,9,2,10,2.88
2013-10-6,73,64,54,68,60,50,91,87,79,29.93,29.78,16,4,20,2.07
2013-10-7,64,54,44,50,45,41,89,74,53,30.14,29.89,16,2,16,0.00
2013-10-8,68,56,44,52,46,41,89,72,49,30.21,30.12,12,1,12,0.00
2013-10-9,77,61,47,60,51,42,86,71,52,30.20,30.11,7,0,7,0.00
2013-10-10,76,63,52,58,52,46,86,69,49,30.17,30.04,9,1,9,0.00
2013-10-11,80,64,51,58,50,44,80,63,42,30.09,30.00,5,0,6,0.00
2013-10-12,83,67,56,62,55,50,84,67,44,30.11,30.01,7,1,9,0.00
2013-10-13,78,66,60,64,57,48,84,72,60,30.26,30.10,13,2,13,0.00
2013-10-14,75,61,50,58,50,42,81,68,54,30.28,30.13,8,2,8,0.00
2013-10-15,76,65,57,63,57,52,87,77,61,30.14,29.94,13,2,13,0.00
2013-10-16,64,61,55,59,55,50,86,83,78,29.98,29.92,7,2,7,0.20
2013-10-17,62,53,45,53,46,41,87,78,62,30.00,29.89,16,2,16,0.33
2013-10-18,72,53,41,55,44,38,89,74,48,30.06,29.94,10,1,14,0.00
2013-10-19,54,47,37,47,42,33,87,81,65,30.03,29.85,15,2,15,0.53
2013-10-20,66,48,34,51,39,31,89,72,47,30.07,30.00,15,2,15,0.00
2013-10-21,73,54,38,50,41,32,81,64,40,30.04,29.92,20,3,20,0.00
2013-10-22,61,50,37,46,37,32,85,64,40,30.05,29.81,12,1,14,0.00
2013-10-23,49,44,37,41,35,29,81,71,56,30.08,29.77,20,4,21,0.06
2013-10-24,51,41,33,39,31,24,79,67,53,30.30,30.07,20,3,20,0.00
2013-10-25,50,37,28,31,26,22,81,65,44,30.46,30.30,13,1,13,0.00
2013-10-26,58,40,27,38,29,20,79,66,47,30.30,29.99,22,4,24,0.00
2013-10-27,65,49,34,46,36,30,87,64,41,30.09,30.02,11,1,12,0.00
2013-10-28,67,54,49,48,42,35,86,62,45,30.25,30.06,7,0,7,0.00
2013-10-29,62,55,48,55,50,44,88,84,76,30.31,30.14,7,0,7,0.53
2013-10-30,77,65,57,66,59,53,90,81,66,30.16,30.02,10,3,10,0.71
2013-10-31,65,63,61,61,57,54,89,81,73,30.03,29.47,25,9,28,2.83
2013-11-1,70,58,48,54,48,40,88,69,44,29.79,29.55,20,5,23,0.02
2013-11-2,63,50,40,48,40,36,85,70,51,30.12,29.79,17,3,17,0.00
2013-11-3,61,45,36,43,35,32,86,69,46,30.31,30.11,6,1,7,0.00
2013-11-4,66,51,39,46,38,32,80,64,46,30.35,30.26,19,2,19,0.00
2013-11-5,69,56,48,47,41,37,68,58,44,30.37,30.20,10,1,10,0.00
2013-11-6,72,58,45,57,49,39,87,73,58,30.20,30.00,22,6,26,0.44
2013-11-7,51,43,36,41,32,25,88,68,43,30.29,30.09,13,4,15,0.16
2013-11-8,56,43,31,34,27,23,77,56,37,30.37,30.23,8,1,8,0.00
2013-11-9,66,47,32,40,30,22,69,54,37,30.23,30.10,22,5,23,0.00
2013-11-10,58,48,40,38,30,24,78,53,34,30.33,30.18,18,3,18,0.00
2013-11-11,66,50,33,40,30,23,70,48,27,30.29,30.11,20,2,20,0.00
2013-11-12,49,34,27,40,22,14,84,61,40,30.61,30.17,21,5,23,0.10
2013-11-13,47,32,22,29,20,15,78,61,42,30.64,30.40,9,2,12,0.00
2013-11-14,58,40,26,32,22,16,67,50,32,30.40,30.17,17,4,17,0.00
2013-11-15,58,44,33,43,30,17,85,59,44,30.18,30.08,18,2,18,0.12
2013-11-16,61,54,47,55,50,42,87,84,79,30.11,29.90,17,5,21,0.00
2013-11-17,66,62,52,62,56,40,88,81,55,29.92,29.62,22,8,23,1.89
2013-11-18,56,48,37,42,35,25,76,61,41,30.21,29.87,21,4,21,0.00
2013-11-19,49,38,31,32,27,24,76,65,51,30.30,30.21,14,2,15,0.00
2013-11-20,59,42,29,38,30,24,79,62,43,30.25,30.15,15,2,15,0.00
2013-11-21,67,53,42,50,42,28,80,65,55,30.27,30.15,15,3,15,0.00
2013-11-22,57,51,41,53,47,34,88,85,77,30.36,30.17,17,5,17,0.51
2013-11-23,44,35,23,34,24,10,80,64,36,30.55,30.33,24,7,24,0.04
2013-11-24,33,24,17,17,12,9,71,58,44,30.65,30.47,11,3,13,0.00
2013-11-25,45,33,23,28,20,12,78,59,43,30.48,30.15,17,3,17,0.00
2013-11-26,35,33,32,32,29,27,88,85,78,30.20,29.90,10,2,12,0.18
2013-11-27,33,27,17,27,18,9,80,69,57,30.31,29.94,22,5,22,0.00
2013-11-28,42,27,14,25,16,8,82,63,45,30.44,30.28,16,2,16,0.04
2013-11-29,50,34,22,30,21,13,71,59,43,30.57,30.43,4,0,6,0.00
2013-11-30,58,40,27,37,26,20,75,59,39,30.44,30.18,19,4,21,0.00
2013-12-1,58,46,39,39,32,25,65,57,48,30.20,29.94,11,3,12,0.00
2013-12-2,59,47,38,44,37,30,77,69,56,29.94,29.73,10,1,10,0.00
2013-12-3,60,51,42,51,45,38,88,81,69,29.84,29.74,8,2,9,0.00
2013-12-4,71,60,48,60,53,43,90,80,65,29.81,29.70,19,5,22,0.00
2013-12-5,66,49,33,60,44,30,88,83,78,30.12,29.80,22,7,22,0.71
2013-12-6,33,30,26,30,26,23,88,87,86,30.35,30.07,16,1,16,0.28
2013-12-7,30,25,23,24,21,18,87,84,77,30.53,30.34,0,0,0,0.00
2013-12-8,34,30,24,30,26,20,89,87,85,30.40,30.00,0,0,0,0.00
2013-12-9,33,30,24,30,26,20,89,84,78,30.22,30.02,12,2,12,0.00
2013-12-10,34,26,22,26,20,18,84,79,70,30.34,30.13,18,4,18,0.00
2013-12-11,40,27,18,31,21,14,88,77,62,30.49,30.31,20,4,20,0.36
2013-12-12,33,23,11,20,14,6,83,69,52,30.55,30.34,10,3,12,0.02
2013-12-13,45,31,20,29,21,12,81,67,50,30.34,30.08,11,2,13,0.32
2013-12-14,44,37,33,40,34,29,89,87,81,30.10,29.71,18,4,18,1.61
2013-12-15,33,30,27,30,25,22,87,82,77,30.14,29.94,20,6,20,0.00
2013-12-16,49,38,31,37,31,25,83,76,62,30.13,30.00,14,5,15,0.00
2013-12-17,44,36,25,35,29,20,83,76,67,30.21,30.00,21,4,21,0.00
2013-12-18,48,33,21,30,22,16,85,65,42,30.29,30.08,15,3,15,0.00
2013-12-19,63,48,34,44,33,21,64,57,48,30.13,29.97,22,6,24,0.00
2013-12-20,61,56,51,55,47,36,83,72,54,29.98,29.85,22,8,24,0.14
2013-12-21,69,62,58,62,58,54,90,85,76,29.87,29.53,26,8,30,0.90
2013-12-22,59,52,36,56,47,32,90,83,72,30.08,29.59,22,7,22,0.69
2013-12-23,37,32,26,32,25,19,86,75,64,30.39,30.08,17,6,18,0.04
2013-12-24,27,22,16,19,12,8,77,66,52,30.54,30.37,20,4,20,0.00
2013-12-25,45,30,16,26,18,10,78,62,44,30.42,30.21,14,3,14,0.00
2013-12-26,47,36,28,32,24,20,78,65,51,30.38,30.21,20,2,20,0.02
2013-12-27,54,37,23,36,25,17,79,64,46,30.41,30.31,13,2,13,0.00
2013-12-28,50,38,29,33,27,20,79,63,50,30.33,29.98,9,2,10,0.18
2013-12-29,52,40,30,44,34,25,87,81,67,30.08,29.85,18,4,22,0.79
2013-12-30,33,27,21,25,21,14,84,76,65,30.24,30.08,21,3,21,0.00
2013-12-31,42,28,19,27,19,13,80,69,51,30.39,30.20,10,3,13,0.00
2014-1-1,51,37,28,34,26,20,79,64,46,30.27,29.97,15,3,15,0.00
2014-1-2,38,28,15,34,22,8,85,76,61,30.29,29.80,22,6,23,0.22